Location: Stockholm
(59.3330°N, 18.0500°E)
Time: 10:21:16
(UTC+01:00)

FENGYUN 1C DEB - Pass Details

Date: 10 December 2023
Orbit: 841 x 915 km, 98.8° (Epoch: 21 February)

Event Time Altitude Azimuth Distance (km) Brightness Sun altitude
Exits shadow 17:05:11 11° 25° (NNE) 2,391 ? -15.2°
Drops below altitude 10° 17:06:42 10° 9° (N) 2,483 ? -15.4°
Sets 17:10:59 0° 337° (NNW) 3,434 ? -15.9°
